Date String (YYYY-MM-DD hh:mm:ss) UTC,Instrument flags,Ambient pressure (hPa),Sample flow (lpm),Bypass flow (lpm),Sample temperature (°C),Ambient temperature (°C),ASC tube jacket temperature (°C),LED temperature (°C),Box temperature (°C),Sample RH (%),Span deviation,Mass concentration (μg/m³),Mass concentration (μg/m³),Mass concentration (μg/m³)
DateTimeUTC,F1_M11,P_M11,Q1_M11,Q2_M11,T1_M11,T2_M11,T3_M11,T4_M11,T5_M11,U1_M11,ZSPAN_M11,X2_M11,X0_M11,X1_M11
2021-10-22 03:00:00,,0830.9,5.00,0.00,28.6,27.7,00.0,37.7,30.3,09.5,0000.0,0004.84,0020.30,0003.58
2021-10-22 03:01:00,,0830.9,5.01,0.00,28.6,27.7,00.0,37.7,30.3,09.5,0000.0,0004.89,0020.47,0003.59
2021-10-22 03:02:00,,0830.9,4.99,0.00,28.6,27.7,00.0,37.7,30.3,09.4,0000.0,0004.92,0019.58,0003.59
2021-10-22 03:03:00,,0830.9,5.01,0.00,28.6,27.7,00.0,37.7,30.3,09.4,0000.0,0004.97,0018.86,0003.58
2021-10-22 03:04:00,,0830.9,5.00,0.00,28.6,27.7,00.0,37.7,30.3,09.4,0000.0,0004.95,0017.96,0003.57
2021-10-22 03:05:00,,0830.9,4.99,0.00,28.6,27.7,00.0,37.7,30.3,09.4,0000.0,0004.93,0018.38,0003.53
2021-10-22 03:06:00,,0830.9,5.02,0.00,28.5,27.7,00.0,37.7,30.2,09.3,0000.0,0004.88,0017.78,0003.52
2021-10-22 03:07:00,,0830.9,4.99,0.00,28.6,27.7,00.0,37.7,30.3,09.2,0000.0,0004.87,0016.28,0003.51
2021-10-22 03:08:00,,0830.9,5.00,0.00,28.6,27.7,00.0,37.7,30.3,09.2,0000.0,0004.81,0015.31,0003.48
2021-10-22 03:09:00,,0830.9,5.00,0.00,28.5,27.7,00.0,37.7,30.3,09.1,0000.0,0004.78,0015.07,0003.45
2021-10-22 03:10:00,,0830.9,5.00,0.00,28.5,27.7,00.0,37.7,30.3,09.1,0000.0,0004.78,0014.70,0003.44
2021-10-22 03:11:00,,0830.9,4.99,0.00,28.5,27.7,00.0,37.7,30.3,09.1,0000.0,0004.83,0014.27,0003.43
2021-10-22 03:12:00,,0830.9,5.01,0.00,28.5,27.7,00.0,37.6,30.3,09.3,0000.0,0004.86,0014.83,0003.42
2021-10-22 03:13:00,,0830.9,5.01,0.00,28.5,27.7,00.0,37.6,30.2,09.4,0000.0,0004.82,0014.90,0003.40
2021-10-22 03:14:00,,0830.9,4.99,0.00,28.5,27.7,00.0,37.6,30.2,09.4,0000.0,0004.75,0015.18,0003.38
2021-10-22 03:15:00,,0830.9,5.01,0.00,28.5,27.7,00.0,37.6,30.2,09.3,0000.0,0004.73,0015.41,0003.37
2021-10-22 03:16:00,,0830.9,5.00,0.00,28.5,27.7,00.0,37.7,30.3,09.2,0000.0,0004.71,0015.69,0003.36
2021-10-22 03:17:00,,0830.9,5.00,0.00,28.5,27.7,00.0,37.7,30.2,09.2,0000.0,0004.70,0015.15,0003.36
2021-10-22 03:18:00,,0830.9,4.99,0.00,28.5,27.7,00.0,37.6,30.2,09.2,0000.0,0004.67,0015.46,0003.35
2021-10-22 03:19:00,,0830.9,5.00,0.00,28.5,27.7,00.0,37.6,30.2,09.3,0000.0,0004.65,0015.89,0003.34
2021-10-22 03:20:00,,0831.0,5.02,0.00,28.5,27.7,00.0,37.6,30.2,09.4,0000.0,0004.63,0016.76,0003.33
2021-10-22 03:21:00,,0831.0,5.00,0.00,28.5,27.6,00.0,37.6,30.2,09.3,0000.0,0004.56,0016.52,0003.32
2021-10-22 03:22:00,,0830.9,4.99,0.00,28.5,27.6,00.0,37.6,30.2,09.2,0000.0,0004.54,0017.30,0003.33
2021-10-22 03:23:00,,0830.9,4.99,0.00,28.5,27.6,00.0,37.6,30.2,09.1,0000.0,0004.53,0017.23,0003.33
2021-10-22 03:24:00,,0830.9,5.00,0.00,28.5,27.6,00.0,37.6,30.2,09.1,0000.0,0004.53,0018.57,0003.35
2021-10-22 03:25:00,,0830.9,5.01,0.00,28.5,27.6,00.0,37.6,30.2,09.1,0000.0,0004.65,0020.25,0003.38
2021-10-22 03:26:00,,0830.9,5.00,0.00,28.5,27.6,00.0,37.6,30.2,09.2,0000.0,0004.74,0020.23,0003.40
2021-10-22 03:27:00,,0831.0,5.01,0.00,28.5,27.6,00.0,37.6,30.2,09.4,0000.0,0004.76,0020.20,0003.41
2021-10-22 03:28:00,,0831.0,5.00,0.00,28.5,27.6,00.0,37.6,30.2,09.5,0000.0,0004.69,0019.87,0003.39
2021-10-22 03:29:00,,0831.0,5.00,0.00,28.5,27.6,00.0,37.6,30.2,09.2,0000.0,0004.67,0019.56,0003.39
2021-10-22 03:30:00,,0831.1,5.00,0.00,28.4,27.5,00.0,37.6,30.2,09.1,0000.0,0004.67,0020.32,0003.40
2021-10-22 03:31:00,,0831.0,5.01,0.00,28.5,27.5,00.0,37.6,30.2,09.1,0000.0,0004.72,0020.76,0003.42
2021-10-22 03:32:00,,0831.0,4.99,0.00,28.5,27.6,00.0,37.6,30.2,09.1,0000.0,0004.86,0020.63,0003.46
2021-10-22 03:33:00,,0831.0,5.02,0.00,28.5,27.6,00.0,37.6,30.3,09.1,0000.0,0004.95,0020.13,0003.47
2021-10-22 03:34:00,,0831.0,5.00,0.00,28.5,27.6,00.0,37.6,30.3,09.1,0000.0,0004.88,0019.84,0003.48
2021-10-22 03:35:00,,0831.0,5.01,0.00,28.5,27.6,00.0,37.6,30.3,09.1,0000.0,0004.91,0018.25,0003.49
2021-10-22 03:36:00,,0831.0,5.00,0.00,28.5,27.6,00.0,37.6,30.2,09.2,0000.0,0004.89,0016.47,0003.49
2021-10-22 03:37:00,,0831.0,5.00,0.00,28.5,27.6,00.0,37.6,30.2,09.3,0000.0,0004.79,0015.79,0003.46
2021-10-22 03:38:00,,0831.0,5.00,0.00,28.5,27.6,00.0,37.6,30.2,09.2,0000.0,0004.72,0015.40,0003.45
2021-10-22 03:39:00,,0831.0,5.00,0.00,28.4,27.6,00.0,37.6,30.2,09.1,0000.0,0004.77,0016.37,0003.47
2021-10-22 03:40:00,,0831.0,5.01,0.00,28.4,27.6,00.0,37.6,30.2,09.1,0000.0,0004.73,0016.80,0003.47
2021-10-22 03:41:00,,0831.0,5.00,0.00,28.4,27.6,00.0,37.5,30.2,09.0,0000.0,0004.69,0017.46,0003.45
2021-10-22 03:42:00,,0831.1,5.00,0.00,28.4,27.6,00.0,37.5,30.2,09.1,0000.0,0004.68,0015.71,0003.43
2021-10-22 03:43:00,,0831.0,5.01,0.00,28.5,27.6,00.0,37.5,30.2,09.2,0000.0,0004.57,0014.94,0003.40
2021-10-22 03:44:00,,0831.0,4.99,0.00,28.5,27.6,00.0,37.5,30.2,09.3,0000.0,0004.44,0014.65,0003.37
2021-10-22 03:45:00,,0831.0,4.99,0.00,28.4,27.6,00.0,37.5,30.2,09.2,0000.0,0004.40,0015.23,0003.34
2021-10-22 03:46:00,,0831.1,5.00,0.00,28.4,27.6,00.0,37.5,30.1,09.1,0000.0,0004.35,0014.99,0003.31
2021-10-22 03:47:00,,0831.0,5.01,0.00,28.4,27.6,00.0,37.5,30.1,09.1,0000.0,0004.25,0014.44,0003.29
2021-10-22 03:48:00,,0831.0,5.01,0.00,28.4,27.6,00.0,37.5,30.1,09.1,0000.0,0004.25,0014.29,0003.29
2021-10-22 03:49:00,,0831.0,4.99,0.00,28.4,27.6,00.0,37.5,30.1,09.0,0000.0,0004.30,0014.32,0003.29
2021-10-22 03:50:00,,0831.0,5.00,0.00,28.4,27.6,00.0,37.5,30.1,09.1,0000.0,0004.30,0013.94,0003.29
2021-10-22 03:51:00,,0831.0,5.01,0.00,28.4,27.6,00.0,37.5,30.1,09.2,0000.0,0004.29,0013.39,0003.28
2021-10-22 03:52:00,,0831.0,5.00,0.00,28.4,27.5,00.0,37.5,30.1,09.3,0000.0,0004.28,0011.93,0003.25
2021-10-22 03:53:00,,0831.0,4.99,0.00,28.4,27.5,00.0,37.5,30.1,09.1,0000.0,0004.19,0012.00,0003.23
2021-10-22 03:54:00,,0831.0,5.00,0.00,28.4,27.5,00.0,37.5,30.1,09.1,0000.0,0004.16,0013.09,0003.21
2021-10-22 03:55:00,,0831.0,5.01,0.00,28.4,27.5,00.0,37.5,30.1,09.1,0000.0,0004.20,0015.02,0003.21
2021-10-22 03:56:00,,0831.0,4.99,0.00,28.4,27.5,00.0,37.5,30.1,09.0,0000.0,0004.23,0015.54,0003.21
2021-10-22 03:57:00,,0831.0,5.00,0.00,28.4,27.5,00.0,37.5,30.1,09.0,0000.0,0004.25,0015.75,0003.20
2021-10-22 03:58:00,,0831.0,5.01,0.00,28.4,27.5,00.0,37.5,30.1,09.0,0000.0,0004.29,0015.90,0003.20
2021-10-22 03:59:00,,0831.0,5.00,0.00,28.4,27.5,00.0,37.5,30.1,09.0,0000.0,0004.29,0016.52,0003.20
